Regional Weather Roundup
Issued by NWS Sioux Falls, SD

Home | Current Version | Previous Version | Text Only | Print | Product List | Glossary On
Versions: 1 2 3 4 5 6 7 8 9 10 11 12 13 14 15 16 17 18 19 20 21 22 23 24 25 26 27 28 29 30 31 32 33 34 35 36 37 38 39 40 41 42 43 44 45 46 47 48 49 50
000
ASUS43 KFSD 210402
RWRFSD

WEATHER ROUNDUP FOR SE SOUTH DAKOTA/SW MINNESOTA/NW IOWA
NATIONAL WEATHER SERVICE SIOUX FALLS SD
1100 PM CDT WED SEP 20 2017

NOTE: "FAIR" INDICATES FEW OR NO CLOUDS BELOW 12,000 FEET WITH NO
SIGNIFICANT WEATHER AND OR OBSTRUCTIONS TO VISIBILITY.


SDZ038>040-050-052>070-210500-
SOUTHEAST SOUTH DAKOTA

CITY           SKY/WX    TMP DP  RH WIND       PRES   REMARKS
BROOKINGS      CLEAR     55  47  74 SE10      29.92R
CHAMBERLAIN    CLEAR     54  47  78 SE8       29.85R
HURON          CLEAR     57  47  69 SE12      29.86R
MADISON        FAIR      57  50  77 S8        29.92S
MITCHELL       CLEAR     58  49  72 S9        29.87S
SIOUX FALLS    CLEAR     53  50  89 CALM      29.92R
WINNER         FAIR      62  41  46 S12       29.84R
YANKTON        CLEAR     59  50  72 SE5       29.91R
$$

MNZ071-072-080-081-089-090-097-098-210500-
SOUTHWEST MINNESOTA

CITY           SKY/WX    TMP DP  RH WIND       PRES   REMARKS
FAIRMONT       CLEAR     55  52  89 CALM      29.94R
JACKSON        CLEAR     54  50  87 CALM      29.95R
LUVERNE        CLEAR     52  46  82 CALM      29.93S
MARSHALL       CLEAR     54  48  80 S8        29.93R
MONTEVIDEO     CLEAR     55  48  76 S6        29.93R
PIPESTONE      CLEAR     55  46  71 E5        29.94R
REDWOOD FALLS  CLEAR     57  50  77 CALM      29.93R
TRACY          CLEAR     54  49  85 CALM      29.94R
WORTHINGTON    CLEAR     53  48  83 NW3       29.95R
$$

IAZ001>003-012>014-020>022-031-032-NEZ013-014-SDZ071-210500-
NORTHWEST IOWA

CITY           SKY/WX    TMP DP  RH WIND       PRES   REMARKS
CHEROKEE       CLEAR     53  53  99 CALM      29.92S
DENISON        CLEAR     55  54  94 CALM      29.93R
ESTHERVILLE    CLEAR     53  52  96 N3        29.93R
LE MARS        CLEAR     54  52  94 CALM      29.92R
ORANGE CITY    CLEAR     61  50  67 CALM      29.93R
SHELDON        CLEAR     50  48  93 CALM      29.92R
SIOUX CITY     CLEAR     53  52  96 CALM      29.91R
SPENCER        CLEAR     49  48  97 N6        29.93R
STORM LAKE     CLEAR     59  46  63 NE5       29.93R
$$

ABBREVIATIONS USED IN REMARKS
   TC - TEMPERATURE IN CELSIUS
  WCI - WIND CHILL INDEX
   HX - HEAT INDEX
  VSB - VISIBILITY




USA.gov is the U.S. government's official web portal to all federal, state and local government web resources and services.